Flag for U.S.A. Weather past 2 weeks in Pembroke Pines, Florida, U.S.A.

Now
77 °F

Clear.


Feels Like: 78 °F
Forecast: 77 / 85 °F
Wind: 3 mph from North

Location: North Perry Airport

Current Time: Jul 22, 2014 at 3:44:59 AM

Latest Report: Jul 22, 2014 at 2:53 AM


Visibility: 10 mi

Pressure: 30.02 "Hg

Humidity: 94%

Dew point: 75 °F

Location of Pembroke PinesLocation

Historic Weather in Pembroke Pines — Graph

°F

Pembroke Pines temperature yesterday

Maximum temperature yesterday: 90 °F (at 11:53 AM)
Minimum temperature yesterday: 75 °F (at 2:53 PM)
Average temperature yesterday: 80 °F

Past Weeks' High & Low Weather Summary

 TemperatureHumidityPressure
High94 °F (Jul 18, 2:53 PM)100% (Jul 8, 5:53 AM)30.16 "Hg (Jul 8, 5:53 AM)
Low73 °F (Jul 17, 1:53 PM)48% (Jul 18, 3:53 PM)29.97 "Hg (Jul 16, 5:53 PM)
Average81 °F81%30.07 "Hg
* Reported Jul 7 1:53 AM — Jul 22 1:53 AM, Pembroke Pines, Weather by CustomWeather, © 2014

Note: Actual official high and low records may vary slightly from our data, if they occured in-between our weather recording intervals... More about our weather records

Advertising

Pembroke Pines weather history for previous 24 hours

 ConditionsComfort  
Time TempWeatherWind HumidityBarometerVisibility
1:53 AM
Jul 22
77 °FClear.No wind94%30.04 "Hg10 mi
12:53 AM78 °FPassing clouds.No wind93%30.05 "Hg10 mi
11:53 PM
Jul 21
77 °FClear.No wind96%30.07 "Hg10 mi
10:53 PM78 °FClear.No wind93%30.08 "Hg10 mi
9:53 PM78 °FClear.No wind93%30.06 "Hg10 mi
8:53 PM78 °FSunny.3 mph93%30.04 "Hg10 mi
7:53 PM79 °FSunny.3 mph90%30.05 "Hg10 mi
6:53 PM79 °FPassing clouds.No wind94%30.03 "Hg10 mi
5:53 PM79 °FSunny.6 mph90%30.03 "Hg10 mi
4:53 PM78 °FPassing clouds.3 mph93%30.04 "Hg10 mi
3:53 PM77 °FLight rain. Partly sunny.9 mph96%30.04 "Hg10 mi
2:53 PM75 °FRain. Fog.5 mph100%30.06 "Hg5 mi
1:53 PM76 °FStrong thunderstorms. Fog.6 mph94%30.08 "Hg1 mi
12:53 PM87 °FThundershowers. Mostly cloudy.12 mph69%30.05 "Hg10 mi
11:53 AM90 °FScattered clouds.8 mph59%30.06 "Hg10 mi
10:53 AM86 °FScattered clouds.9 mph67%30.07 "Hg10 mi
9:53 AM87 °FScattered clouds.9 mph69%30.06 "Hg10 mi
8:53 AM83 °FLight rain. Broken clouds.No wind82%30.06 "Hg10 mi
7:53 AM81 °FSunny.No wind88%30.04 "Hg10 mi
6:53 AM78 °FClear.No wind93%30.03 "Hg10 mi
5:53 AM79 °FPassing clouds.No wind90%30.01 "Hg10 mi
4:53 AM79 °FClear.No wind90%30.01 "Hg10 mi
3:53 AM79 °FClear.No wind90%30.01 "Hg10 mi
Weather by CustomWeather, © 2014

See weather overviewHow to use our weather pages